Theta_e
323 327 336 342 339 339 338 334 333 333 333 335 335 334 338 338 336 339 341 340 343 344 344 348 348 346 346 346 347 348 348 348 347 347 346 342 339 338 338 339 339 340 341 341 341 341 341 343 343 343 344 344 344 345 344 344 344 344 345 345 345 344 343
326 325 331 339 337 336 337 334 333 333 333 334 334 334 336 336 332 335 339 339 341 341 342 349 351 347 347 346 346 348 349 349 347 347 347 343 340 339 338 338 339 339 340 341 340 340 340 341 341 342 343 343 343 344 344 344 344 344 344 344 344 344 343
326 329 335 338 335 333 334 335 334 333 335 335 333 333 334 334 332 333 336 339 339 339 342 348 350 348 348 347 346 348 348 349 348 347 347 345 342 340 338 338 338 339 339 340 339 339 340 340 341 341 341 342 343 344 344 344 345 344 344 345 344 343 343
322 327 334 334 333 331 331 334 332 331 337 337 334 334 331 332 333 332 333 335 334 337 344 347 349 350 349 348 346 347 347 348 348 347 348 347 344 341 339 338 338 338 339 339 339 339 339 339 340 340 341 342 342 343 343 344 345 345 346 346 345 342 341
322 323 326 326 327 327 326 329 329 329 333 334 333 334 330 328 331 332 332 331 329 338 348 348 349 349 348 348 346 346 348 348 347 346 347 347 346 344 341 340 339 339 339 339 338 339 339 339 340 340 341 341 341 342 342 343 344 345 346 346 346 343 342
321 323 323 322 323 325 327 331 333 331 330 328 328 331 330 327 329 331 331 328 328 341 348 348 349 348 347 349 347 346 348 348 346 346 346 346 346 345 343 341 340 339 339 339 339 339 339 339 340 340 341 341 341 342 342 342 343 344 346 346 346 345 342
323 323 323 323 322 326 332 336 338 336 332 327 326 328 329 329 329 332 332 328 332 345 348 347 348 349 349 350 348 347 347 347 346 345 345 346 345 346 346 343 341 340 340 340 339 339 339 340 340 340 340 340 340 341 341 342 342 342 345 346 346 345 342
325 323 324 325 324 327 332 335 339 339 337 336 334 332 330 328 330 333 332 329 334 346 349 349 349 351 351 350 348 347 347 346 346 346 346 346 345 346 346 345 344 342 340 340 339 339 339 339 339 340 340 340 340 340 341 342 341 342 344 346 346 345 342
322 322 323 325 327 330 332 334 338 339 341 341 339 337 334 329 329 333 330 326 333 346 349 348 349 349 351 351 348 345 345 346 346 347 347 346 346 346 346 346 345 343 342 341 339 339 339 339 339 339 339 339 339 340 340 341 341 341 343 346 347 346 345
318 320 322 324 328 332 332 334 338 339 340 339 335 333 330 328 330 333 330 328 336 348 349 346 347 348 349 350 347 345 346 346 346 347 347 347 346 346 346 346 345 343 342 341 340 340 339 339 339 339 339 339 339 340 340 340 341 341 342 345 347 347 347
319 322 327 329 331 332 330 333 337 340 341 339 334 329 328 333 334 332 334 338 341 348 349 346 347 347 348 350 348 346 346 346 346 347 348 348 347 346 346 346 346 345 343 342 341 341 340 340 339 339 339 339 339 339 340 340 341 341 341 344 346 347 347
323 326 329 331 333 333 332 333 336 339 341 340 339 336 337 340 336 329 337 344 344 346 349 347 347 347 348 350 349 348 347 345 345 347 348 348 348 347 347 346 346 346 345 343 342 341 341 340 340 340 340 340 339 340 340 339 341 341 341 342 345 346 347
325 327 328 330 335 335 335 336 337 339 341 340 341 342 341 341 336 334 342 346 346 348 349 346 346 347 348 349 349 349 348 346 345 346 347 349 349 348 348 347 347 346 346 345 344 342 341 340 340 341 341 342 342 342 341 340 340 341 341 341 343 345 346
326 326 327 331 335 334 334 336 338 339 341 340 340 342 342 342 342 342 345 347 348 349 348 346 347 348 348 348 349 349 349 347 347 346 346 347 348 349 349 348 348 348 347 347 346 345 343 342 340 340 341 342 343 343 343 343 342 342 342 342 342 344 346
324 326 327 329 332 332 332 333 336 339 340 340 340 341 342 344 345 345 345 346 348 347 346 347 347 347 348 349 349 349 349 348 347 346 345 345 347 348 349 349 349 349 349 348 347 346 346 344 342 341 340 341 342 344 344 345 345 344 343 343 342 343 345
323 325 327 328 329 330 329 327 332 338 339 338 340 341 341 343 345 345 345 345 346 346 346 346 346 347 347 347 347 347 348 347 347 347 346 346 347 348 348 349 350 350 350 349 349 348 347 346 344 343 341 341 342 343 344 345 346 345 345 345 345 345 346
321 324 327 329 329 326 325 327 332 337 339 339 340 341 341 342 343 344 344 343 343 345 346 345 344 345 345 344 344 345 346 348 349 348 348 348 349 349 349 349 349 350 350 349 349 349 348 347 346 344 343 343 342 343 344 344 345 345 347 347 348 349 348
320 324 327 328 325 322 326 331 332 335 338 338 340 342 341 341 341 341 342 341 339 340 343 343 342 342 341 341 343 343 345 346 347 347 348 349 349 349 349 349 349 349 350 349 349 349 348 348 347 347 346 345 345 344 344 344 344 345 346 346 346 347 348
320 324 325 323 321 323 329 331 332 335 337 336 337 340 339 339 340 341 341 339 338 338 340 341 341 340 340 340 341 342 343 343 343 343 344 346 348 349 348 348 348 348 349 349 349 349 348 348 348 348 348 347 347 346 346 346 345 345 345 346 345 344 345
321 323 322 320 321 326 329 328 329 333 335 334 335 337 338 338 340 341 341 339 339 339 339 340 340 340 340 339 339 339 341 341 340 339 341 343 346 348 348 348 348 348 348 348 348 348 348 348 348 348 348 348 348 348 348 347 347 346 346 347 346 344 344
324 325 324 323 324 325 328 329 330 332 334 334 334 336 337 337 339 341 340 338 339 340 340 341 340 339 340 340 339 338 339 340 339 338 339 341 343 346 347 347 348 348 347 348 348 347 347 347 348 348 348 348 348 349 348 348 348 348 348 348 348 347 347
326 328 327 325 323 322 326 331 330 330 332 332 332 334 335 337 339 340 339 339 340 340 340 340 339 339 341 341 338 337 338 339 339 339 339 340 342 344 345 346 347 347 347 347 346 347 347 347 347 347 347 347 347 348 348 347 348 348 348 348 349 349 349
325 326 325 326 323 322 328 331 328 329 330 330 331 332 332 335 339 339 338 339 340 340 341 340 339 341 344 342 338 337 338 339 340 340 340 341 342 343 344 344 345 345 344 344 346 347 347 347 347 346 346 346 346 347 346 346 346 346 346 346 346 347 349
326 324 324 325 324 325 330 330 328 328 329 329 332 331 330 334 338 339 338 339 339 340 340 339 339 341 343 341 337 336 338 340 340 341 341 340 341 342 342 342 343 343 342 343 345 346 346 345 345 345 344 345 345 345 345 345 345 344 345 345 345 347 348
327 326 323 323 324 326 328 328 328 328 328 329 332 331 330 333 338 339 338 338 339 339 339 338 338 339 339 338 337 336 336 337 338 340 340 339 338 340 340 340 341 342 341 340 341 342 342 343 343 342 343 343 343 343 343 343 343 342 343 344 344 345 346
327 327 325 323 323 325 326 327 327 327 328 330 331 330 330 333 338 339 338 338 339 338 337 337 338 338 338 337 337 336 334 331 331 333 334 332 331 334 336 337 339 339 339 338 337 338 339 340 341 342 342 342 341 341 341 340 339 339 340 340 340 341 341
326 327 326 323 323 324 326 328 329 328 330 330 330 332 334 335 337 339 338 338 339 337 337 337 337 338 337 336 336 334 331 328 326 325 325 323 323 326 329 331 333 334 334 334 335 336 336 337 338 339 340 340 339 339 338 336 335 336 336 336 336 336 337
325 326 325 324 325 326 326 328 329 329 329 329 329 334 337 336 337 338 338 338 338 337 337 338 337 337 336 334 333 330 326 324 321 319 317 317 318 319 320 323 324 325 326 328 329 330 332 333 334 335 336 336 336 335 334 332 332 334 334 333 334 334 333
324 326 326 326 327 327 326 327 328 327 328 329 330 334 336 336 337 338 338 338 337 337 337 337 337 336 335 332 329 326 323 322 319 317 315 314 314 314 314 315 316 316 317 319 320 321 322 322 323 325 326 326 326 326 327 328 329 329 328 327 326 325 323
324 326 327 326 327 329 328 328 328 328 329 332 332 334 335 335 336 336 337 337 336 336 337 337 336 336 333 330 327 324 323 322 319 317 315 313 312 312 312 312 312 312 313 314 314 315 316 316 315 315 315 315 317 318 320 321 322 320 318 317 317 317 316
325 327 329 328 328 329 328 328 329 329 331 333 334 334 333 333 334 334 335 335 336 336 336 336 335 334 331 328 326 325 323 321 317 315 313 312 311 311 310 310 310 310 311 311 312 313 313 312 312 313 313 314 315 316 316 316 316 316 315 316 316 316 316
326 328 329 328 328 328 328 329 330 330 331 333 333 334 333 333 332 332 332 334 335 336 336 335 334 332 329 326 326 325 323 320 316 313 311 310 309 309 309 308 308 308 308 309 309 309 309 309 310 312 314 315 315 316 315 315 315 316 317 317 318 317 317
327 328 327 327 328 328 327 328 329 330 330 331 331 332 333 333 332 331 331 333 334 334 335 334 331 329 328 326 325 325 322 319 317 315 313 311 308 308 308 308 307 307 306 307 307 308 310 311 312 312 313 315 316 317 317 317 316 317 318 318 319 319 318
328 329 329 329 329 330 329 327 327 327 328 329 329 330 331 331 330 330 330 331 333 333 333 333 330 327 327 326 326 324 322 321 321 320 317 314 311 310 310 311 311 310 310 309 310 310 311 312 312 311 311 312 314 315 316 316 316 316 317 317 317 317 316
327 329 330 328 328 330 329 327 327 327 327 327 328 329 328 327 328 329 330 330 332 332 331 331 330 328 326 327 327 325 324 323 324 323 320 317 316 315 314 314 314 315 315 315 315 315 315 315 315 314 314 314 314 315 315 315 315 316 316 316 316 316 315
325 326 328 327 327 328 326 324 325 324 322 323 326 328 328 326 327 329 329 329 331 332 332 331 330 329 328 328 327 327 326 325 325 325 324 323 322 321 319 318 316 316 317 319 320 320 320 319 319 318 317 317 317 317 317 317 317 317 317 317 317 316 316
324 326 327 326 325 323 320 319 320 320 319 319 320 324 327 328 328 329 329 329 330 332 332 331 330 329 329 328 328 327 327 326 326 326 327 327 327 327 326 324 322 321 321 322 324 324 324 324 323 321 320 319 318 318 319 318 318 318 319 319 319 318 318
Wind_Speed
2 5 5 6 4 3 2 2 3 1 0 1 0 1 1 1 3 2 3 3 2 1 3 4 5 6 11 14 17 22 23 18 19 22 26 31 34 35 36 37 38 38 37 36 34 31 31 30 28 26 24 23 22 22 23 22 22 21 21 20 18 17 17
4 2 5 7 2 1 3 3 2 2 2 0 1 1 1 2 4 2 2 5 3 1 2 3 6 9 11 13 15 19 22 21 19 20 25 32 36 36 37 37 37 37 37 36 35 33 31 30 28 25 23 22 21 21 22 22 22 22 21 20 19 18 17
6 2 5 6 4 3 1 3 2 0 2 2 1 1 2 2 4 3 2 3 3 4 3 2 6 11 11 12 14 16 20 24 22 19 23 30 34 35 36 37 37 37 38 37 35 33 32 30 29 26 23 22 22 22 22 22 22 22 21 20 19 18 18
1 2 1 2 3 3 3 4 2 3 1 2 1 0 2 3 4 4 2 2 2 3 1 1 5 8 10 12 13 14 20 25 23 20 20 24 31 35 36 37 37 38 37 37 36 34 33 31 29 28 26 24 23 22 22 22 22 22 21 21 20 19 19
1 2 3 2 1 1 2 3 1 1 1 2 2 1 3 4 4 4 4 5 2 2 2 4 6 6 8 12 12 13 18 22 23 24 22 23 29 34 36 37 38 37 37 36 36 35 34 32 30 30 28 26 25 24 23 22 22 22 22 22 21 20 20
3 4 3 2 1 1 1 1 1 1 2 2 2 2 3 4 5 4 5 6 3 3 3 5 5 5 6 10 12 12 14 19 24 26 26 26 29 32 35 37 38 37 37 36 36 35 35 34 33 32 31 29 28 26 24 23 22 22 23 23 22 21 21
2 2 3 1 1 4 6 5 2 0 2 3 3 2 2 4 4 2 3 5 2 3 5 5 4 3 0 5 8 9 10 13 19 22 24 28 30 31 33 35 37 38 37 36 36 35 35 35 35 34 33 32 30 28 26 25 23 22 22 22 22 21 22
1 1 3 5 5 4 5 5 3 1 1 3 3 1 1 2 3 2 2 3 0 4 6 6 5 7 7 4 2 2 3 5 9 15 20 24 28 30 33 34 35 36 36 36 36 36 36 36 35 35 35 33 32 30 29 27 25 22 21 21 21 22 22
2 4 4 5 5 3 2 3 3 2 2 3 4 1 1 3 2 1 4 3 1 4 6 7 7 8 9 7 5 4 2 2 4 9 15 21 25 28 31 33 35 35 35 36 36 36 36 36 35 35 35 34 33 32 31 29 26 24 22 21 21 22 23
4 5 4 3 4 3 2 2 3 3 4 2 2 1 3 4 2 2 3 2 3 4 7 9 8 7 7 6 7 8 6 4 5 7 12 17 21 25 28 30 32 34 35 35 36 36 36 35 35 35 35 35 35 34 32 30 28 26 23 22 22 23 23
4 3 1 1 2 3 3 3 3 4 4 3 1 1 2 1 3 1 1 3 4 3 7 9 8 7 5 4 5 7 6 5 6 6 8 13 16 20 23 25 27 29 32 33 35 36 36 35 35 35 35 35 35 35 34 32 30 28 25 24 23 23 24
3 2 3 4 2 1 3 3 3 5 3 3 4 2 1 2 3 2 3 5 6 3 7 8 7 7 4 4 5 5 5 6 7 6 6 8 11 14 17 20 23 25 27 30 32 34 35 35 35 36 36 36 36 35 34 33 33 31 28 26 25 25 24
2 2 4 4 3 2 1 1 3 4 3 3 5 3 1 1 3 3 5 6 5 3 6 7 6 5 5 5 5 3 4 6 8 7 6 7 8 10 12 15 18 21 23 26 28 30 32 34 35 36 37 37 37 37 36 35 34 33 31 30 28 27 26
2 2 3 2 1 2 1 1 2 2 4 5 4 3 2 1 2 3 4 5 3 3 5 6 6 5 4 4 4 4 4 3 6 7 7 7 7 8 9 11 13 16 18 20 23 26 28 30 32 34 36 37 38 38 38 37 36 34 33 32 31 30 28
2 1 2 1 0 2 3 2 2 1 4 5 4 2 1 1 2 2 3 3 2 3 5 7 8 7 6 6 6 6 5 3 2 4 7 7 6 6 7 9 11 12 14 17 19 21 24 26 29 32 34 35 36 36 36 36 35 34 33 32 33 33 31
2 0 2 3 1 2 5 5 3 2 2 2 3 3 2 2 1 1 3 3 1 2 3 7 8 9 9 10 10 9 7 5 3 1 2 4 5 4 5 6 8 9 12 14 16 18 21 23 25 28 30 31 33 33 33 33 32 33 33 32 32 33 32
2 1 3 3 2 2 5 4 2 1 3 2 3 4 3 4 3 2 3 1 2 3 1 5 6 6 7 7 7 6 5 3 2 2 1 3 4 4 4 4 4 6 7 9 12 14 16 18 20 22 24 25 27 28 29 29 30 31 31 31 31 31 31
1 2 2 1 3 4 1 1 1 2 3 4 4 3 4 6 5 3 2 1 2 4 2 3 4 4 4 4 6 6 5 4 2 1 1 3 4 5 4 4 3 2 3 4 7 8 9 11 14 16 18 20 22 24 26 28 29 29 29 29 30 30 30
1 1 0 4 4 2 1 1 1 2 2 3 5 5 6 7 6 6 5 3 1 2 2 3 4 5 6 7 9 10 10 9 6 3 3 4 5 6 5 6 6 5 3 1 3 5 6 7 9 11 13 16 18 20 22 24 26 28 28 29 30 30 31
1 1 2 3 2 1 2 4 3 2 2 2 4 6 8 9 9 8 6 4 4 3 1 3 5 5 6 9 12 12 12 9 7 6 5 6 7 7 6 5 6 7 6 4 3 3 4 6 8 9 9 11 13 15 18 21 23 26 28 29 30 31 32
1 1 2 2 3 1 3 4 3 5 5 3 2 4 4 8 10 8 6 5 5 5 3 5 5 2 3 7 11 12 15 14 9 7 6 6 8 8 6 5 6 6 5 3 3 4 5 6 8 9 9 10 10 12 14 18 21 25 28 28 29 30 30
0 1 2 3 4 2 1 2 3 5 4 3 2 3 3 6 10 9 7 6 6 7 6 5 3 1 1 3 5 7 16 19 13 8 7 8 10 9 6 5 5 5 4 3 3 5 5 4 3 5 8 7 7 8 10 13 18 23 26 27 28 29 28
2 3 3 2 3 2 1 3 4 4 4 3 3 5 4 3 10 11 10 9 9 9 7 5 2 2 1 1 2 3 15 22 17 10 9 10 12 12 9 7 7 6 5 4 5 7 7 6 5 2 3 5 6 7 8 11 13 16 17 18 20 21 21
3 4 3 2 3 2 0 2 3 5 5 3 3 5 2 2 8 11 11 11 10 9 6 3 2 1 2 3 1 2 13 23 21 16 12 11 12 12 11 11 10 9 9 8 9 10 11 10 8 6 3 4 5 6 9 10 9 9 10 11 13 14 14
2 4 4 3 2 1 1 2 4 6 5 3 3 3 2 2 8 10 11 11 10 9 5 1 1 4 7 9 7 7 15 23 24 21 17 15 14 13 12 11 10 9 12 14 16 17 17 16 14 10 8 10 11 11 12 12 12 13 13 12 11 12 13
1 2 3 2 2 1 1 3 6 6 4 3 2 3 3 4 9 10 10 11 11 9 4 2 6 11 13 14 12 12 17 22 23 22 20 18 17 16 15 14 12 13 16 19 21 21 20 19 17 13 12 16 18 18 17 18 18 17 15 15 15 15 15
1 1 2 2 2 1 4 7 6 4 3 2 4 4 1 5 10 11 11 12 12 10 6 7 12 16 16 16 16 17 18 19 20 21 21 21 20 19 18 17 16 17 20 22 22 21 19 18 17 15 15 18 20 19 20 20 19 17 16 17 19 19 19
2 3 3 1 1 1 3 5 3 1 3 5 5 3 1 5 9 11 11 13 15 11 9 12 16 17 18 19 20 21 20 20 21 21 21 22 22 21 20 20 20 20 23 24 24 22 20 18 18 16 16 19 21 21 21 20 18 18 18 19 20 21 21
2 2 1 1 2 1 4 6 5 4 6 7 5 3 2 4 9 11 10 14 16 13 13 16 17 18 20 20 22 23 23 22 22 22 22 22 22 22 22 22 23 24 25 26 25 24 22 20 20 19 19 21 23 24 22 20 19 20 19 20 21 22 22
1 2 1 1 2 2 3 5 5 4 4 5 3 3 2 3 8 11 10 10 14 15 17 20 19 19 21 22 23 25 26 25 23 23 23 23 23 23 23 22 23 23 24 25 25 25 23 21 21 21 22 24 24 23 22 21 21 21 21 22 23 23 22
3 2 2 1 2 2 2 2 2 3 3 3 3 4 4 4 5 9 9 8 11 16 19 21 21 20 22 25 26 26 26 26 24 24 25 24 23 23 22 22 22 22 23 24 24 24 23 22 22 22 23 24 23 21 20 20 20 20 21 22 22 21 21
2 1 1 1 1 1 3 4 5 5 4 4 3 3 5 6 6 7 9 8 10 14 16 19 21 22 24 27 28 27 26 26 26 26 26 26 25 24 23 22 22 22 24 24 24 24 24 23 22 23 24 23 22 21 20 18 18 19 20 20 20 20 19
1 1 2 3 1 2 4 6 7 7 6 6 6 4 5 8 8 7 7 9 12 15 15 17 21 23 24 26 28 28 28 28 28 28 28 28 27 27 26 25 24 25 25 25 25 25 24 22 22 22 22 21 21 21 20 18 17 18 18 18 19 19 18
2 2 8 9 3 2 5 6 8 9 8 9 11 10 8 8 9 8 7 10 16 21 19 17 20 24 25 25 27 28 29 30 30 29 29 29 29 29 28 27 27 27 26 26 26 25 23 21 21 21 21 20 20 19 18 17 16 16 16 16 17 18 17
1 5 15 15 6 6 9 11 12 13 12 12 13 14 14 13 12 12 10 8 13 21 23 20 21 24 24 24 26 27 28 28 29 29 29 29 29 29 28 28 28 27 26 26 26 25 23 22 21 20 20 20 19 18 17 16 15 14 14 14 15 16 16
1 10 19 17 10 12 16 16 16 14 13 13 15 15 15 16 16 15 13 9 9 16 21 21 21 22 23 24 25 26 26 26 27 28 28 28 28 28 27 26 25 25 24 24 23 23 22 20 19 18 18 17 17 16 15 14 14 13 13 13 13 14 14
5 15 19 15 15 20 22 19 17 15 12 13 16 15 13 15 16 15 14 14 12 15 20 21 20 20 21 22 24 25 24 24 25 25 26 26 26 25 25 24 23 22 22 21 20 19 18 17 17 16 16 15 15 14 14 13 12 12 12 13 13 13 13
Wind_Direction
192 235 184 165 185 162 152 216 210 157 46 292 197 127 97 174 248 225 188 241 257 258 255 203 179 187 195 200 199 201 205 198 188 189 193 199 204 208 211 212 213 214 216 217 219 220 218 216 216 217 218 216 213 211 209 208 210 212 216 218 219 221 222
32 297 174 149 135 179 183 192 182 134 154 38 31 263 235 243 263 246 195 251 270 262 258 177 179 200 197 196 196 197 198 194 190 190 193 199 205 209 212 214 215 216 217 218 219 221 221 220 219 219 220 220 218 216 213 211 211 213 216 219 222 224 225
25 48 151 136 96 35 55 119 84 67 181 175 36 313 284 273 281 274 216 261 268 230 225 171 199 209 199 194 196 196 198 198 197 193 195 202 205 207 209 211 214 216 217 219 221 222 223 222 223 223 222 222 222 221 219 218 218 218 219 221 225 227 227
28 64 108 165 138 77 77 108 70 7 83 180 176 288 280 273 283 287 285 297 267 219 238 310 244 226 205 194 193 198 201 199 196 192 193 200 203 205 207 210 213 216 218 221 223 224 224 224 225 225 225 225 225 225 224 224 223 224 225 226 227 228 228
158 70 33 2 139 146 169 154 124 34 118 156 184 221 264 263 272 282 288 293 292 85 24 314 287 266 220 199 194 198 198 193 191 195 199 203 206 208 210 212 214 217 219 222 224 226 226 226 225 226 226 227 227 228 227 227 226 226 227 228 229 228 227
100 97 79 23 338 54 93 100 101 188 200 197 199 232 245 240 251 262 277 289 307 64 9 318 304 291 234 205 197 195 193 189 192 199 206 211 213 212 212 214 216 217 219 222 225 226 226 225 226 227 227 228 228 229 229 228 229 228 228 229 229 227 226
65 108 106 100 137 97 77 62 43 324 243 228 211 224 230 226 236 241 274 285 296 61 14 347 346 1 116 195 196 188 180 185 195 204 211 217 220 218 216 216 217 219 221 223 225 226 226 227 228 228 228 229 230 231 230 229 229 229 229 229 228 226 224
302 217 112 112 134 127 95 65 41 31 286 266 243 251 334 263 236 211 245 268 335 58 27 22 42 57 66 77 120 153 147 167 198 211 215 220 223 223 221 220 220 221 221 222 224 224 226 228 229 229 229 230 231 231 232 230 229 230 230 229 227 223 220
178 170 153 147 151 152 128 82 55 16 341 279 237 216 241 247 265 273 252 264 57 63 44 45 55 65 70 74 96 125 138 184 219 222 219 221 225 224 223 220 218 218 218 220 222 223 226 228 229 230 231 232 233 233 233 232 229 228 229 229 227 223 219
212 201 193 171 149 137 138 106 85 37 11 333 242 206 197 218 338 346 249 277 37 60 53 47 46 57 68 79 111 129 140 179 212 223 219 217 221 224 223 220 216 215 216 218 221 223 226 228 229 231 232 232 233 234 235 235 231 227 226 225 225 224 221
273 271 329 68 130 147 144 106 82 63 33 19 4 264 219 262 329 301 260 332 331 20 43 38 33 39 51 54 82 110 128 158 181 204 213 210 211 215 219 220 219 219 218 218 220 222 225 227 229 231 233 233 234 235 236 236 234 229 225 222 223 223 223
297 323 17 15 348 137 133 118 88 84 68 52 60 47 319 306 277 265 22 344 304 350 34 32 25 21 19 27 48 94 136 160 167 174 192 200 205 209 214 218 221 223 224 222 222 223 224 226 229 231 233 234 235 236 237 237 237 232 226 222 221 221 223
303 7 28 12 349 5 90 101 91 98 94 72 74 86 150 202 243 296 341 325 301 350 26 32 32 13 1 12 26 67 135 166 172 168 170 180 189 197 206 215 219 223 227 228 228 227 227 227 228 230 231 233 234 236 237 238 239 237 231 227 225 224 224
298 4 20 26 357 292 300 28 59 111 111 93 90 116 153 217 260 293 310 303 310 357 19 37 48 37 17 14 25 48 79 141 176 186 193 190 183 184 194 207 216 221 226 231 232 232 232 231 231 231 231 232 233 235 236 237 238 238 236 232 231 230 229
254 337 7 38 116 262 273 318 355 174 140 123 121 136 159 257 262 298 300 284 314 23 40 52 59 59 50 41 36 34 46 70 139 193 198 197 193 192 198 206 213 220 226 232 235 237 237 236 235 234 234 234 234 235 236 237 238 240 239 237 238 238 238
225 28 343 317 328 291 272 274 278 254 224 180 146 143 182 221 204 279 283 269 326 20 74 80 73 74 66 51 37 23 27 43 32 12 165 174 182 187 200 209 215 221 228 234 239 241 242 241 239 238 237 237 237 237 238 238 239 241 240 239 240 241 241
197 100 5 342 334 280 266 268 277 288 282 254 173 159 188 205 196 233 254 247 343 327 142 110 81 75 70 58 53 38 21 15 357 4 90 146 154 159 177 191 207 221 231 240 243 245 248 247 244 242 240 238 237 237 238 238 239 240 238 237 239 240 241
194 96 24 310 249 262 270 60 8 280 264 248 233 214 199 199 202 226 232 108 8 327 354 93 84 80 74 59 70 69 39 13 15 40 82 132 133 126 124 122 126 169 229 249 253 254 253 250 247 243 239 237 235 234 236 237 238 239 238 237 237 239 243
225 108 347 241 245 284 52 116 277 272 247 247 272 271 234 213 208 199 178 141 133 307 351 65 92 93 84 64 61 68 58 36 23 32 75 108 126 125 117 112 109 109 120 185 243 253 255 255 253 247 241 239 238 237 239 239 239 239 239 236 235 236 238
261 199 218 242 275 0 242 250 256 238 241 246 267 267 237 216 211 196 174 153 160 181 122 100 108 94 76 59 53 67 79 63 26 21 55 97 124 130 125 111 100 100 101 106 139 184 214 231 243 248 247 247 248 248 247 244 241 240 238 235 233 232 232
258 238 225 269 302 275 220 238 220 205 230 248 264 278 245 210 211 205 176 158 164 167 140 121 123 90 40 48 47 65 87 87 70 57 68 98 116 121 124 117 108 108 105 104 127 139 159 191 214 227 235 241 245 249 250 246 242 239 237 233 230 228 227
130 250 259 274 286 284 180 183 183 190 223 245 232 266 266 200 199 198 176 162 170 169 156 140 135 276 352 53 40 75 94 93 89 86 80 83 93 99 109 124 135 141 137 137 123 109 111 129 171 215 228 234 241 243 242 237 230 227 228 228 230 229 225
168 213 247 243 255 299 84 161 160 161 187 210 220 251 273 183 183 186 172 167 175 169 158 149 155 209 192 90 350 91 103 98 97 95 81 78 87 90 95 109 122 124 116 117 117 103 94 90 85 102 210 225 233 227 219 218 213 206 206 207 208 209 207
180 206 236 243 243 283 20 185 168 153 164 178 219 241 288 115 175 182 168 168 178 169 154 155 164 177 160 138 119 102 104 104 106 106 95 89 93 94 95 97 98 97 95 99 105 99 90 85 80 76 105 167 191 189 190 198 190 167 162 163 162 164 167
191 213 234 262 253 243 247 212 156 143 153 191 228 252 10 129 182 181 166 169 176 167 154 162 149 128 126 128 126 114 107 106 108 108 102 96 94 92 89 87 88 94 91 84 82 83 82 81 80 81 98 114 118 124 136 141 127 116 121 129 131 135 138
183 214 237 275 276 220 112 123 132 145 176 209 248 327 352 174 180 177 170 169 168 162 146 109 142 139 128 124 124 117 108 104 104 106 106 102 97 94 92 91 94 99 94 83 76 76 80 84 88 95 105 109 109 110 109 103 97 94 98 100 100 104 109
133 177 208 246 274 160 135 135 141 171 219 302 347 341 315 175 176 178 174 169 170 168 145 131 142 137 127 128 128 119 110 105 103 104 105 103 101 100 100 98 97 98 96 90 85 81 80 85 91 96 102 104 105 103 95 88 85 86 87 88 89 91 92
192 198 192 217 337 79 169 182 180 214 277 308 319 307 172 169 184 186 175 172 179 178 156 146 144 136 132 135 130 120 113 109 105 104 104 104 102 102 102 100 100 100 97 94 91 87 83 83 87 92 97 99 97 92 87 84 84 85 86 88 89 88 87
208 242 260 334 333 304 243 245 264 293 295 296 282 226 161 162 186 191 184 179 181 175 161 155 149 140 138 136 128 121 116 110 106 104 103 103 102 101 102 103 101 101 100 98 96 93 90 88 89 91 92 92 89 87 85 85 85 84 85 86 86 85 83
198 266 272 263 278 288 270 257 255 256 266 278 262 211 160 149 182 193 198 191 179 168 160 156 150 145 143 136 128 122 116 109 106 105 103 103 101 100 101 101 100 99 99 98 97 96 95 92 90 88 85 83 83 83 83 83 82 81 81 81 80 79 77
178 214 189 194 259 268 244 218 195 174 180 200 212 179 136 108 161 182 187 189 177 167 159 153 149 147 144 137 129 122 115 110 108 106 104 104 102 100 99 98 98 98 96 95 95 94 92 91 88 85 82 80 80 81 82 83 83 81 79 78 77 76 76
177 0 68 165 287 243 191 176 165 158 147 131 119 134 137 123 121 147 163 171 170 163 155 149 146 145 142 136 128 121 116 112 109 107 105 104 104 102 101 99 98 98 97 96 95 92 90 89 86 83 82 81 80 81 81 83 83 81 78 76 75 75 76
168 8 161 177 165 138 163 161 152 149 140 121 110 112 145 145 127 121 146 160 155 148 144 143 142 142 140 133 125 120 116 113 110 107 104 103 103 103 101 100 98 98 97 96 95 93 91 89 86 83 81 81 80 80 81 81 82 80 77 76 75 74 73
216 182 173 178 168 119 151 139 119 120 123 120 116 107 112 132 134 127 139 156 151 143 138 140 143 142 139 131 124 119 115 111 108 105 102 101 102 101 100 99 97 95 95 95 93 92 90 87 84 82 81 81 80 80 80 80 78 76 75 74 71 69 66
292 167 170 169 146 110 130 117 98 103 111 112 112 108 107 113 117 117 124 152 161 150 143 146 150 145 138 130 124 118 115 110 105 103 101 100 100 99 98 98 97 95 94 93 92 91 90 88 85 83 81 80 79 77 76 75 72 71 68 66 64 61 58
79 169 171 165 140 125 128 115 100 101 102 99 101 105 111 111 105 102 109 127 157 152 144 146 151 147 139 132 124 119 116 112 106 104 103 101 100 100 99 98 98 97 96 94 93 93 91 90 88 86 84 82 78 77 75 73 70 69 65 62 61 58 55
147 163 164 158 141 132 126 115 108 105 99 95 96 96 103 112 111 112 121 129 139 142 136 134 137 136 133 129 123 118 117 115 111 109 107 105 103 102 101 101 100 100 99 97 95 93 91 88 87 85 84 82 79 77 75 71 67 63 60 58 57 55 51